Weather History for San Antonio Stinson, TX

Change the Weather History Date:

Wednesday, August 20, 2014

  Actual Average Record
Temperature  
Mean Temperature 89 °F -  
Max Temperature 100 °F 93 °F 105 °F (1999)
Min Temperature 78 °F 72 °F 69 °F (2008)
Cooling Degree Days 24    
Growing Degree Days 39 (Base 50)    
Moisture  
Dew Point 71 °F    
Average Humidity 65    
Maximum Humidity 90    
Minimum Humidity 29    
Precipitation  
Precipitation 0.00 in - - ()
Sea Level Pressure  
Sea Level Pressure 29.89 in    
Wind  
Wind Speed 11 mph (SSE)    
Max Wind Speed 18 mph    
Max Gust Speed 28 mph    
Visibility 10 miles    
Events      
Averages and records for this station are not official NWS values.
T = Trace of Precipitation, MM = Missing Value Source: NWS Daily Summary

Daily Weather History Graph

Daily Weather History Graph

Search for Another Location

Airport:

Trip Planner

Search our weather history database for the weather conditions in past years. The results will help you decide how hot, cold, wet, or windy it might be!

Date:

Astronomy

Aug. 20, 2014 Rise Set
Actual Time 7:05 AM CDT 8:09 PM CDT
Civil Twilight 6:40 AM CDT 8:33 PM CDT
Nautical Twilight 6:11 AM CDT 9:02 PM CDT
Astronomical Twilight 5:40 AM CDT 9:32 PM CDT
Moon 2:54 AM CDT (8/20) 4:47 PM CDT (8/20)
Length of Visible Light 13h 53m
Length of Day
13h 04m
Waning Crescent, 20% of the Moon is Illuminated
Aug 20
Waning Crescent
Aug 25
New
Sep 2
First Quarter
Sep 8
Full
Sep 15
Last Quarter

Hourly Weather History & Observations

Time (CDT) Temp. Heat Index Dew Point Humidity Pressure Visibility Wind Dir Wind Speed Gust Speed Precip Events Conditions
12:53 AM 81.0 °F 85.2 °F 72.0 °F 74% 29.86 in 10.0 mi SE 12.7 mph - N/A   Clear
1:53 AM 81.0 °F 85.8 °F 73.0 °F 77% 29.87 in 10.0 mi SE 11.5 mph - N/A   Clear
2:53 AM 80.1 °F 84.5 °F 73.9 °F 81% 29.86 in 10.0 mi SSE 11.5 mph - N/A   Scattered Clouds
3:00 AM 80.1 °F 84.5 °F 73.9 °F 81% 29.90 in 10.0 mi SSE 10.4 mph - N/A   Mostly Cloudy
3:53 AM 80.1 °F 85.1 °F 75.0 °F 85% 29.86 in 10.0 mi SE 11.5 mph - N/A   Overcast
4:53 AM 80.1 °F 84.5 °F 73.9 °F 81% 29.87 in 10.0 mi SSE 11.5 mph 23.0 mph N/A   Mostly Cloudy
5:53 AM 80.1 °F 84.5 °F 73.9 °F 81% 29.88 in 10.0 mi SSE 12.7 mph - N/A   Overcast
6:26 AM 79.0 °F - 73.9 °F 84% 29.92 in 10.0 mi SSE 9.2 mph - N/A   Scattered Clouds
6:53 AM 78.1 °F - 73.9 °F 87% 29.89 in 10.0 mi SSE 5.8 mph - N/A   Partly Cloudy
7:32 AM 78.1 °F - 75.0 °F 90% 29.94 in 9.0 mi SE 4.6 mph - N/A   Mostly Cloudy
7:42 AM 78.1 °F - 75.0 °F 90% 29.94 in 9.0 mi SE 4.6 mph - N/A   Mostly Cloudy
7:53 AM 78.1 °F - 75.0 °F 90% 29.91 in 9.0 mi SE 4.6 mph - N/A   Overcast
8:53 AM 81.0 °F 86.7 °F 75.0 °F 82% 29.92 in 10.0 mi SSE 11.5 mph - N/A   Overcast
9:12 AM 82.0 °F 88.6 °F 75.0 °F 79% 29.96 in 10.0 mi SSE 11.5 mph - N/A   Overcast
9:53 AM 84.0 °F 90.2 °F 73.0 °F 69% 29.93 in 10.0 mi South 15.0 mph 20.7 mph N/A   Mostly Cloudy
10:53 AM 88.0 °F 93.8 °F 71.1 °F 57% 29.93 in 10.0 mi South 11.5 mph - N/A   Mostly Cloudy
11:53 AM 91.9 °F 96.9 °F 69.1 °F 47% 29.93 in 10.0 mi SSE 11.5 mph 19.6 mph N/A   Partly Cloudy
12:53 PM 95.0 °F 100.7 °F 69.1 °F 43% 29.91 in 10.0 mi South 10.4 mph 20.7 mph N/A   Scattered Clouds
1:53 PM 93.0 °F 96.4 °F 66.9 °F 42% 29.89 in 10.0 mi SSE 8.1 mph 20.7 mph N/A   Partly Cloudy
2:53 PM 98.1 °F 101.8 °F 66.0 °F 35% 29.86 in 10.0 mi ESE 10.4 mph 20.7 mph N/A   Partly Cloudy
3:53 PM 97.0 °F 99.3 °F 64.0 °F 34% 29.83 in 10.0 mi SE 13.8 mph 21.9 mph N/A   Partly Cloudy
4:53 PM 100.9 °F 103.3 °F 63.0 °F 29% 29.81 in 10.0 mi SE 17.3 mph 23.0 mph N/A   Partly Cloudy
5:53 PM 99.0 °F 102.9 °F 66.0 °F 34% 29.80 in 10.0 mi SE 18.4 mph 26.5 mph N/A   Clear
6:53 PM 96.1 °F 99.3 °F 66.0 °F 37% 29.81 in 10.0 mi SE 13.8 mph - N/A   Clear
7:53 PM 91.0 °F 96.6 °F 70.0 °F 50% 29.84 in 10.0 mi SE 15.0 mph 21.9 mph N/A   Clear
8:53 PM 89.1 °F 94.1 °F 70.0 °F 53% 29.88 in 10.0 mi SE 17.3 mph 27.6 mph N/A   Clear
9:53 PM 86.0 °F 90.1 °F 69.1 °F 57% 29.91 in 10.0 mi SE 13.8 mph 25.3 mph N/A   Clear
10:53 PM 84.0 °F 88.4 °F 70.0 °F 63% 29.92 in 10.0 mi SE 16.1 mph 27.6 mph N/A   Clear
11:53 PM 82.9 °F 87.5 °F 71.1 °F 67% 29.93 in 10.0 mi SE 13.8 mph - N/A   Clear